DW5367 Weather Reports


time (UTC)temp
C
wind
direction
speed
KPH
gust
KPH
rain 1hr
cm
rain 24hr
cm
rain mn
cm
humidity
%
barometer
mb
20260507204545 16 211 3.2 8.0 0.00 0.33 0.15 60 1006.7
20260507203035 16 272 3.2 6.4 0.00 0.33 0.15 64 1006.7
20260507201532 16 322 1.6 6.4 0.00 0.33 0.15 63 1006.7
20260507200035 15 256 1.6 9.7 0.00 0.33 0.15 67 1006.9
20260507194526 15 275 1.6 9.7 0.00 0.33 0.15 66 1006.9
20260507193027 15 286 3.2 11.3 0.00 0.33 0.15 65 1007.3
20260507191523 15 301 3.2 6.4 0.03 0.33 0.15 65 1007.6
20260507190031 14 360 1.6 6.4 0.03 0.33 0.15 68 1007.6
20260507184512 13 360 0.0 4.8 0.03 0.33 0.15 70 1007.6
20260507183017 13 360 3.2 8.0 0.00 0.30 0.13 69 1007.7
20260507181618 12 360 3.2 6.4 0.00 0.30 0.13 74 1007.8
20260507180011 11 360 0.0 4.8 0.00 0.30 0.13 75 1008.1
20260507174509 11 360 1.6 8.0 0.00 0.30 0.13 77 1008.3
20260507173005 11 360 3.2 6.4 0.00 0.30 0.13 75 1008.4
20260507171507 10 360 0.0 4.8 0.00 0.30 0.13 77 1008.7
20260507170007 10 360 0.0 4.8 0.00 0.30 0.13 79 1008.9
20260507164509 9 360 1.6 6.4 0.00 0.30 0.13 80 1009.0
20260507163006 8 360 0.0 0.0 0.00 0.30 0.13 83 1009.2
20260507161503 8 360 0.0 4.8 0.00 0.30 0.13 84 1009.7
20260507160104 7 231 0.0 3.2 0.00 0.30 0.13 88 1009.7
20260507154602 7 231 0.0 3.2 0.00 0.30 0.13 89 1009.7
20260507153059 7 231 1.6 6.4 0.00 0.30 0.13 90 1009.4
20260507151558 7 227 1.6 4.8 0.00 0.30 0.13 92 1009.3
20260507150057 7 225 1.6 4.8 0.03 0.30 0.13 93 1009.7
20260507144559 7 223 0.0 1.6 0.03 0.30 0.13 96 1009.7
20260507143059 6 223 0.0 0.0 0.03 0.30 0.13 96 1010.0
20260507141602 6 218 0.0 0.0 0.03 0.30 0.13 97 1010.1
20260507140111 6 238 0.0 4.8 0.00 0.28 0.10 97 1010.1
20260507134552 6 238 0.0 6.4 0.00 0.33 0.10 97 1010.1
20260507133050 7 238 1.6 6.4 0.00 0.33 0.10 97 1010.0
20260507131601 7 241 1.6 6.4 0.00 0.33 0.10 97 1010.2
20260507130053 7 251 1.6 4.8 0.00 0.33 0.10 97 1010.4
20260507124557 7 263 0.0 0.0 0.00 0.41 0.10 97 1010.3
20260507123054 7 264 0.0 9.7 0.00 0.41 0.10 97 1009.9
20260507121546 7 274 0.0 9.7 0.00 0.41 0.10 97 1009.6
20260507120044 7 314 0.0 4.8 0.00 0.41 0.10 97 1009.6
20260507114544 7 316 0.0 3.2 0.00 0.41 0.10 96 1009.7
20260507113042 7 317 0.0 0.0 0.00 0.41 0.10 96 1009.4
20260507111540 7 317 0.0 0.0 0.03 0.41 0.10 97 1009.4
20260507110036 7 317 0.0 0.0 0.03 0.41 0.10 97 1009.0
20260507104539 7 317 0.0 0.0 0.03 0.41 0.10 97 1008.8
20260507103035 7 317 0.0 0.0 0.03 0.41 0.10 97 1009.1
20260507101539 7 317 0.0 0.0 0.00 0.38 0.08 97 1009.1
20260507100035 7 317 0.0 0.0 0.00 0.38 0.08 97 1008.9
20260507094531 7 317 0.0 0.0 0.00 0.38 0.08 98 1008.8
20260507093037 7 317 0.0 0.0 0.00 0.38 0.08 98 1008.7
20260507091529 7 317 0.0 0.0 0.00 0.38 0.08 98 1008.6
20260507090032 7 314 0.0 4.8 0.00 0.38 0.08 98 1008.6
20260507084527 7 315 0.0 4.8 0.00 0.38 0.08 97 1008.3
20260507083035 7 315 1.6 4.8 0.00 0.38 0.08 97 1008.2
20260507081528 7 333 3.2 6.4 0.03 0.38 0.08 97 1008.6
20260507080022 7 299 3.2 6.4 0.03 0.38 0.08 97 1008.4
20260507074526 8 254 0.0 8.0 0.03 0.38 0.08 98 1008.5
20260507073017 8 324 1.6 8.0 0.03 0.38 0.08 97 1008.0
20260507071513 8 336 0.0 6.4 0.00 0.36 0.05 97 1007.8
20260507070014 9 360 0.0 4.8 0.00 0.36 0.05 97 1007.8
20260507064511 9 360 0.0 6.4 0.00 0.36 0.05 97 1007.9
20260507063008 9 360 3.2 8.0 0.00 0.36 0.05 97 1008.1
20260507061608 10 360 0.0 6.4 0.03 0.36 0.05 97 1007.9
20260507060003 10 360 0.0 4.8 0.03 0.36 0.05 97 1008.4
20260507054609 10 360 0.0 0.0 0.03 0.36 0.05 97 1008.4
20260507053100 10 360 0.0 0.0 0.03 0.36 0.05 97 1008.1
20260507051559 11 360 0.0 8.0 0.00 0.33 0.03 97 1008.2
20260507044551 12 360 0.0 0.0 0.03 0.33 0.03 98 1007.7
20260507043049 12 360 0.0 0.0 0.03 0.33 0.03 97 1007.0
20260507041545 12 360 0.0 3.2 0.03 0.33 0.03 97 1007.6
20260507040053 12 360 0.0 4.8 0.00 0.30 0.00 97 1008.3
20260507034547 12 360 0.0 0.0 0.03 0.30 0.30 97 1008.1
20260507033043 13 360 0.0 0.0 0.03 0.30 0.30 97 1008.2
20260507031538 13 360 0.0 3.2 0.03 0.30 0.30 96 1008.3
20260507030038 14 360 0.0 6.4 0.03 0.30 0.30 97 1008.3
20260507024537 14 360 0.0 0.0 0.03 0.28 0.28 97 1007.7
20260507023038 14 360 1.6 6.4 0.03 0.28 0.28 97 1007.9
20260507021535 14 360 0.0 3.2 0.03 0.28 0.28 97 1007.7
20260507020035 15 360 0.0 4.8 0.05 0.28 0.28 96 1007.5
20260507014646 15 360 0.0 0.0 0.05 0.25 0.25 96 1007.5
20260507013145 15 360 0.0 0.0 0.05 0.25 0.25 96 1006.8
20260507011538 15 360 0.0 8.0 0.10 0.25 0.25 96 1007.2
20260507010032 15 360 1.6 6.4 0.10 0.23 0.23 95 1007.7
20260507004531 15 360 0.0 0.0 0.08 0.20 0.20 95 1007.6
20260507003031 15 360 0.0 4.8 0.08 0.20 0.20 94 1007.9
20260507001533 16 360 1.6 4.8 0.03 0.15 0.15 93 1007.7
20260507000029 17 360 0.0 8.0 0.00 0.13 0.13 90 1006.8
20260506234540 17 360 1.6 12.9 0.00 0.13 0.13 87 1006.8
20260506233029 17 205 3.2 8.0 0.00 0.13 0.13 85 1006.8
20260506231534 18 226 1.6 12.9 0.00 0.13 0.13 84 1006.6
20260506230027 18 201 1.6 8.0 0.00 0.13 0.13 84 1006.4
20260506224530 18 360 3.2 12.9 0.00 0.13 0.13 84 1006.4
20260506223026 18 360 1.6 9.7 0.00 0.13 0.13 83 1006.5
20260506221525 18 360 3.2 12.9 0.00 0.13 0.13 82 1006.5
20260506220026 18 360 3.2 14.5 0.00 0.13 0.13 82 1006.5
20260506214525 18 360 4.8 17.7 0.00 0.13 0.13 80 1006.3
20260506213024 19 360 4.8 16.1 0.00 0.13 0.13 80 1006.2
20260506211522 18 360 6.4 14.5 0.00 0.13 0.13 80 1006.3
20260506210023 18 360 3.2 17.7 0.00 0.13 0.13 82 1006.1